Home   Weather   Žilina   Past weeks
Flag for Slovakia

Past Weather in Žilina, Slovakia — Yesterday and Last 2 Weeks

Now
63 °F

Passing clouds.


Feels Like: 63 °F
Forecast: 65 / 42 °F
Wind: 9 mph from Southwest

Location: Dolny Hricov

Current Time: Oct 16, 2019 at 7:03:13 am

Latest Report: Oct 16, 2019 at 6:00 am


Visibility: N/A

Pressure: 29.89 "Hg

Humidity: 59%

Dew Point: 48 °F

Location of ŽilinaLocation

Past Weather in Žilina — Graph

°F

Žilina Temperature Yesterday

Maximum temperature yesterday: 75 °F (at 2:30 pm)
Minimum temperature yesterday: 46 °F (at 6:30 am)
Average temperature yesterday: 60 °F

High & Low Weather Summary for the Past Weeks

 TemperatureHumidityPressure
High75 °F (Oct 15, 2:30 pm)100% (Oct 1, 7:30 am)30.24 "Hg (Oct 1, 7:30 am)
Low27 °F (Oct 8, 5:30 am)41% (Oct 7, 3:30 pm)29.65 "Hg (Oct 2, 5:30 am)
Average49 °F84%29.98 "Hg
* Reported Oct 1 6:00 am — Oct 16 6:00 am, Žilina. Weather by CustomWeather, © 2019

Note: Actual official high and low records may vary slightly from our data, if they occured in-between our weather recording intervals... More about our weather records

Advertising

Žilina Weather History for the Previous 24 Hours

Scroll right to see more
 ConditionsComfort  
Time TempWeatherWind HumidityBarometerVisibility
6:00 am
Wed, Oct 16
63 °FPassing clouds.9 mph59%29.89 "HgN/A
5:30 am63 °FPassing clouds.9 mph64%29.89 "HgN/A
4:30 am63 °FPassing clouds.6 mph59%29.86 "HgN/A
4:00 am61 °FClear.5 mph63%29.86 "Hg10 mi
3:30 am63 °FPassing clouds.6 mph64%29.86 "HgN/A
3:00 am64 °FClear.3 mph56%29.86 "Hg10 mi
2:30 am64 °FPassing clouds.9 mph56%29.86 "HgN/A
2:00 am64 °FPassing clouds.8 mph60%29.86 "HgN/A
1:30 am64 °FPassing clouds.9 mph60%29.89 "HgN/A
1:06 am57 °FClear.2 mph77%29.89 "Hg10 mi
1:00 am54 °FClear.2 mph82%29.89 "Hg10 mi
12:30 am55 °FClear.2 mph77%29.86 "Hg10 mi
12:00 am57 °FPassing clouds.3 mph77%29.86 "HgN/A
11:00 pm
Tue, Oct 15
63 °FClear.2 mph64%29.86 "Hg10 mi
10:30 pm66 °FPassing clouds.8 mph56%29.86 "HgN/A
10:00 pm66 °FPassing clouds.6 mph56%29.86 "HgN/A
9:30 pm66 °FPassing clouds.8 mph52%29.89 "HgN/A
9:00 pm66 °FPassing clouds.7 mph52%29.89 "HgN/A
8:37 pm66 °FPassing clouds.7 mph52%29.89 "HgN/A
8:00 pm63 °FClear.1 mph59%29.89 "Hg10 mi
7:30 pm64 °FClear.2 mph56%29.89 "Hg10 mi
7:00 pm66 °FPassing clouds.5 mph52%29.86 "HgN/A
6:30 pm66 °FPassing clouds.5 mph49%29.86 "HgN/A
6:00 pm68 °FPassing clouds.3 mph46%29.86 "HgN/A
5:30 pm70 °FSunny.2 mph46%29.86 "Hg10 mi
5:00 pm72 °FPassing clouds.5 mph44%29.86 "HgN/A
4:30 pm73 °FSunny.2 mph41%29.86 "Hg10 mi
4:00 pm73 °FPassing clouds.6 mph41%29.89 "HgN/A
3:30 pm73 °FPassing clouds.7 mph41%29.89 "HgN/A
3:00 pm73 °FPassing clouds.8 mph41%29.89 "HgN/A
2:30 pm75 °FPassing clouds.9 mph41%29.92 "HgN/A
2:00 pm73 °FPassing clouds.9 mph44%29.92 "HgN/A
1:30 pm73 °FPassing clouds.8 mph44%29.92 "HgN/A
1:00 pm73 °FPassing clouds.9 mph44%29.95 "HgN/A
12:30 pm73 °FPassing clouds.7 mph44%29.95 "HgN/A
12:00 pm72 °FSunny.2 mph53%29.95 "Hg10 mi
11:40 am70 °FPassing clouds.3 mph60%29.95 "HgN/A
11:19 am66 °FPassing clouds.3 mph73%29.95 "HgN/A
11:00 am63 °FSunny.1 mph77%29.98 "Hg10 mi
10:38 am59 °FSunny.2 mph94%29.98 "Hg10 mi
10:00 am54 °FLight fog.1 mph94%29.98 "HgN/A
9:36 am52 °FLight fog.1 mph94%29.98 "HgN/A
9:00 am48 °FFog.2 mph100%29.98 "Hg1 mi
8:30 am48 °FFog.1 mph94%30.01 "Hg0 mi
8:00 am46 °FFog.1 mph100%30.01 "Hg0 mi
7:30 am46 °FFog.2 mph100%29.98 "Hg0 mi
7:00 am46 °FFog.2 mph100%30.01 "Hg0 mi
Weather by CustomWeather, © 2019

See weather overview